When you browse on this site, cookies collect data to enhance your experience and personalize the content and advertising you see.
Visit our Privacy Policy to learn more. By continuing to use the site, you agree to this use of cookies and data.
  • In Hungary
  • List of Countries
  • For 7 days
  • Water Temperature
  • Satellite Maps
  • Weather Map
  • News
  • Weather Widgets
  • user-avatar
    Login

    Hourly Weather Kant

    Today, 17 July, Wednesday

    Time Temperature Precipitation Wind Pressure Humidity
    00:00 +32°C° 0.5 mm 2 mps 736 mmHg 67%
    01:00 +32°C° 0.5 mm 1 mps 736 mmHg 69%
    02:00 +32°C° 0.5 mm 1 mps 735 mmHg 71%
    03:00 +31°C° 0.7 mm 1 mps 736 mmHg 73%
    04:00 +31°C° 0.7 mm 2 mps 736 mmHg 75%
    05:00 +30°C° 0.7 mm 2 mps 736 mmHg 77%
    06:00 +31°C° 1.4 mm 2 mps 736 mmHg 72%
    07:00 +32°C° 1.4 mm 2 mps 736 mmHg 67%
    08:00 +34°C° 1.4 mm 2 mps 737 mmHg 63%
    09:00 +36°C° 0.5 mm 2 mps 737 mmHg 56%
    10:00 +37°C° 0.5 mm 2 mps 737 mmHg 49%
    11:00 +38°C° 0.5 mm 2 mps 737 mmHg 43%
    12:00 +39°C° 0 mm 2 mps 737 mmHg 41%
    13:00 +39°C° 0 mm 2 mps 736 mmHg 40%
    14:00 +40°C° 0 mm 3 mps 735 mmHg 38%
    15:00 +40°C° 0 mm 3 mps 735 mmHg 39%
    16:00 +39°C° 0 mm 3 mps 735 mmHg 40%
    17:00 +39°C° 0 mm 3 mps 734 mmHg 40%
    18:00 +38°C° 0.1 mm 3 mps 735 mmHg 44%
    19:00 +37°C° 0.1 mm 3 mps 735 mmHg 48%
    20:00 +36°C° 0.1 mm 2 mps 736 mmHg 52%
    21:00 +35°C° 0.2 mm 3 mps 736 mmHg 56%
    22:00 +34°C° 0.2 mm 3 mps 736 mmHg 61%
    23:00 +33°C° 0.2 mm 4 mps 736 mmHg 66%

    Tomorrow, 18 July, Thursday

    Time Temperature Precipitation Wind Pressure Humidity
    00:00 +31°C° 0.4 mm 3 mps 736 mmHg 67%
    01:00 +31°C° 0.4 mm 2 mps 735 mmHg 69%
    02:00 +31°C° 0.4 mm 1 mps 735 mmHg 70%
    03:00 +31°C° 0 mm 1 mps 735 mmHg 71%
    04:00 +31°C° 0 mm 1 mps 735 mmHg 71%
    05:00 +29°C° 0 mm 0 mps 735 mmHg 72%
    06:00 +32°C° 0 mm 1 mps 736 mmHg 67%
    07:00 +33°C° 0 mm 1 mps 736 mmHg 63%
    08:00 +34°C° 0 mm 1 mps 737 mmHg 58%
    09:00 +36°C° 0 mm 2 mps 737 mmHg 54%
    10:00 +37°C° 0 mm 2 mps 737 mmHg 49%
    11:00 +38°C° 0 mm 3 mps 737 mmHg 45%
    12:00 +38°C° 0 mm 2 mps 736 mmHg 44%
    13:00 +39°C° 0 mm 2 mps 736 mmHg 43%
    14:00 +39°C° 0 mm 2 mps 736 mmHg 42%
    15:00 +39°C° 0 mm 2 mps 735 mmHg 43%
    16:00 +38°C° 0 mm 2 mps 735 mmHg 44%
    17:00 +38°C° 0 mm 2 mps 734 mmHg 45%
    18:00 +36°C° 0 mm 1 mps 734 mmHg 48%
    19:00 +36°C° 0 mm 1 mps 735 mmHg 51%
    20:00 +35°C° 0 mm 1 mps 735 mmHg 53%
    21:00 +35°C° 0 mm 1 mps 735 mmHg 55%
    22:00 +34°C° 0 mm 1 mps 735 mmHg 57%
    23:00 +35°C° 0 mm 2 mps 736 mmHg 58%

    Day after tomorrow, 19 July, Friday

    Time Temperature Precipitation Wind Pressure Humidity
    00:00 +34°C° 0 mm 2 mps 735 mmHg 61%
    01:00 +34°C° 0 mm 2 mps 735 mmHg 63%
    02:00 +32°C° 0 mm 2 mps 735 mmHg 65%
    03:00 +32°C° 0 mm 2 mps 735 mmHg 67%
    04:00 +32°C° 0 mm 2 mps 735 mmHg 69%
    05:00 +32°C° 0 mm 1 mps 736 mmHg 70%
    06:00 +33°C° 0 mm 1 mps 736 mmHg 66%
    07:00 +34°C° 0 mm 1 mps 736 mmHg 61%
    08:00 +35°C° 0 mm 1 mps 737 mmHg 56%
    09:00 +37°C° 0 mm 1 mps 737 mmHg 51%
    10:00 +39°C° 0 mm 1 mps 737 mmHg 45%
    11:00 +41°C° 0 mm 1 mps 737 mmHg 40%
    12:00 +40°C° 0 mm 1 mps 736 mmHg 39%
    13:00 +40°C° 0 mm 2 mps 736 mmHg 39%
    14:00 +40°C° 0 mm 2 mps 735 mmHg 39%
    15:00 +40°C° 0 mm 2 mps 735 mmHg 40%
    16:00 +40°C° 0 mm 2 mps 735 mmHg 41%
    17:00 +40°C° 0 mm 3 mps 735 mmHg 42%
    18:00 +39°C° 0 mm 2 mps 735 mmHg 44%
    19:00 +37°C° 0 mm 1 mps 735 mmHg 47%
    20:00 +37°C° 0 mm 1 mps 735 mmHg 49%
    21:00 +36°C° 0 mm 1 mps 735 mmHg 50%
    22:00 +36°C° 0 mm 1 mps 735 mmHg 52%
    23:00 +35°C° 0 mm 1 mps 735 mmHg 54%

    20 July, Saturday

    Time Temperature Precipitation Wind Pressure Humidity
    00:00 +35°C° 0 mm 1 mps 735 mmHg 55%
    01:00 +35°C° 0 mm 1 mps 735 mmHg 57%
    02:00 +34°C° 0 mm 1 mps 735 mmHg 59%
    03:00 +34°C° 0 mm 1 mps 735 mmHg 60%
    04:00 +34°C° 0 mm 1 mps 735 mmHg 61%
    05:00 +31°C° 0 mm 0 mps 735 mmHg 61%
    06:00 +34°C° 0 mm 1 mps 736 mmHg 57%
    07:00 +36°C° 0 mm 1 mps 736 mmHg 53%
    08:00 +37°C° 0 mm 1 mps 737 mmHg 50%
    09:00 +39°C° 0 mm 1 mps 737 mmHg 45%
    10:00 +40°C° 0 mm 1 mps 737 mmHg 41%
    11:00 +41°C° 0 mm 2 mps 737 mmHg 37%
    12:00 +41°C° 0 mm 2 mps 736 mmHg 37%
    13:00 +41°C° 0 mm 2 mps 735 mmHg 37%
    14:00 +42°C° 0 mm 3 mps 735 mmHg 38%
    15:00 +42°C° 0 mm 3 mps 735 mmHg 38%
    16:00 +42°C° 0 mm 4 mps 734 mmHg 39%
    17:00 +42°C° 0 mm 4 mps 734 mmHg 40%
    18:00 +39°C° 0 mm 3 mps 734 mmHg 43%
    19:00 +38°C° 0 mm 3 mps 734 mmHg 47%
    20:00 +37°C° 0 mm 2 mps 734 mmHg 50%
    21:00 +36°C° 0 mm 1 mps 734 mmHg 51%
    22:00 +36°C° 0 mm 1 mps 734 mmHg 51%
    23:00 +34°C° 0 mm 0 mps 734 mmHg 52%

    21 July, Sunday

    Time Temperature Precipitation Wind Pressure Humidity
    00:00 +34°C° 0 mm 0 mps 734 mmHg 53%
    01:00 +33°C° 0 mm 0 mps 734 mmHg 53%
    02:00 +35°C° 0 mm 1 mps 733 mmHg 54%
    03:00 +35°C° 0 mm 1 mps 734 mmHg 55%
    04:00 +35°C° 0 mm 1 mps 734 mmHg 56%
    05:00 +34°C° 0 mm 1 mps 734 mmHg 56%
    06:00 +35°C° 0 mm 1 mps 734 mmHg 53%
    07:00 +36°C° 0 mm 1 mps 734 mmHg 49%
    08:00 +39°C° 0 mm 1 mps 735 mmHg 46%
    09:00 +40°C° 0 mm 2 mps 735 mmHg 42%
    10:00 +41°C° 0 mm 2 mps 735 mmHg 38%
    11:00 +44°C° 0 mm 3 mps 735 mmHg 34%
    12:00 +44°C° 0 mm 4 mps 734 mmHg 34%
    13:00 +44°C° 0 mm 4 mps 733 mmHg 34%
    14:00 +45°C° 0 mm 5 mps 733 mmHg 33%
    15:00 +43°C° 0 mm 4 mps 732 mmHg 34%
    16:00 +43°C° 0 mm 4 mps 732 mmHg 34%
    17:00 +43°C° 0 mm 3 mps 732 mmHg 34%
    18:00 +41°C° 0 mm 2 mps 732 mmHg 36%
    19:00 +40°C° 0 mm 1 mps 732 mmHg 39%
    20:00 +40°C° 0 mm 1 mps 732 mmHg 41%
    21:00 +39°C° 0 mm 1 mps 732 mmHg 42%
    22:00 +39°C° 0 mm 1 mps 733 mmHg 44%
    23:00 +37°C° 0 mm 1 mps 733 mmHg 45%

    22 July, Monday

    Time Temperature Precipitation Wind Pressure Humidity
    00:00 +37°C° 0 mm 1 mps 732 mmHg 46%
    01:00 +37°C° 0 mm 1 mps 732 mmHg 47%
    02:00 +36°C° 0 mm 1 mps 732 mmHg 48%
    03:00 +36°C° 0 mm 1 mps 732 mmHg 50%
    04:00 +35°C° 0 mm 1 mps 732 mmHg 52%
    05:00 +36°C° 0 mm 2 mps 732 mmHg 54%
    06:00 +37°C° 0 mm 2 mps 732 mmHg 51%
    07:00 +38°C° 0 mm 2 mps 733 mmHg 49%
    08:00 +39°C° 0 mm 2 mps 733 mmHg 46%
    09:00 +40°C° 0 mm 2 mps 733 mmHg 41%
    10:00 +42°C° 0 mm 2 mps 733 mmHg 36%
    11:00 +44°C° 0 mm 3 mps 733 mmHg 31%
    12:00 +45°C° 0 mm 4 mps 733 mmHg 29%
    13:00 +46°C° 0 mm 5 mps 732 mmHg 27%
    14:00 +47°C° 0 mm 6 mps 732 mmHg 25%
    15:00 +47°C° 0 mm 5 mps 731 mmHg 25%
    16:00 +47°C° 0 mm 5 mps 731 mmHg 25%
    17:00 +46°C° 0 mm 5 mps 731 mmHg 24%
    18:00 +44°C° 0 mm 4 mps 731 mmHg 28%
    19:00 +43°C° 0 mm 3 mps 731 mmHg 31%
    20:00 +40°C° 0 mm 2 mps 731 mmHg 34%
    21:00 +40°C° 0 mm 2 mps 731 mmHg 40%
    22:00 +39°C° 0 mm 2 mps 732 mmHg 45%
    23:00 +38°C° 0 mm 2 mps 732 mmHg 51%
    Show more